| time (UTC) | temp F | wind direction | speed knots | gust knots | rain 1hr in | rain 24hr in | rain mn in | humidity % | barometer mb |
| 20260906131606 | 73 | 40 | 1.7 | 4.3 | 0.00 | 0.00 | 0.00 | 95 | 1015.7 |
| 20260906130034 | 73 | 338 | 2.6 | 5.2 | 0.00 | 0.00 | 0.00 | 94 | 1015.4 |
| 20260906124541 | 73 | 62 | 2.6 | 4.3 | 0.00 | 0.00 | 0.00 | 94 | 1015.3 |
| 20260906123050 | 73 | 63 | 1.7 | 5.2 | 0.00 | 0.00 | 0.00 | 94 | 1015.2 |
| 20260906121538 | 73 | 94 | 0.9 | 2.6 | 0.00 | 0.00 | 0.00 | 95 | 1014.8 |
| 20260906120036 | 73 | 59 | 0.9 | 2.6 | 0.00 | 0.00 | 0.00 | 95 | 1014.9 |
| 20260906114536 | 73 | 57 | 0.0 | 2.6 | 0.00 | 0.00 | 0.00 | 95 | 1014.5 |
| 20260906113036 | 73 | 55 | 0.9 | 3.5 | 0.00 | 0.00 | 0.00 | 95 | 1014.6 |
| 20260906111535 | 74 | 0 | 0.9 | 3.5 | 0.00 | 0.00 | 0.00 | 95 | 1014.4 |
| 20260906110035 | 74 | 55 | 0.9 | 1.7 | 0.00 | 0.00 | 0.00 | 94 | 1014.1 |
| 20260906104535 | 74 | 333 | 0.0 | 1.7 | 0.00 | 0.00 | 0.00 | 94 | 1014.2 |
| 20260906103043 | 74 | 33 | 0.9 | 2.6 | 0.00 | 0.00 | 0.00 | 93 | 1014.2 |
| 20260906101536 | 75 | 70 | 0.9 | 2.6 | 0.00 | 0.00 | 0.00 | 93 | 1014.1 |
| 20260906100106 | 75 | 320 | 0.9 | 3.5 | 0.00 | 0.00 | 0.00 | 92 | 1013.9 |
| 20260906100034 | 75 | 320 | 0.9 | 3.5 | 0.00 | 0.00 | 0.00 | 92 | 1013.9 |
| 20260906094537 | 76 | 78 | 0.9 | 2.6 | 0.00 | 0.00 | 0.00 | 92 | 1013.6 |
| 20260906064534 | 81 | 65 | 0.9 | 2.6 | 0.00 | 0.00 | 0.00 | 88 | 1013.2 |
| 20260906063044 | 81 | 63 | 0.9 | 1.7 | 0.00 | 0.00 | 0.00 | 87 | 1013.3 |
| 20260906061534 | 82 | 59 | 0.9 | 2.6 | 0.00 | 0.00 | 0.00 | 86 | 1013.3 |
| 20260906060035 | 82 | 52 | 0.9 | 2.6 | 0.00 | 0.00 | 0.00 | 85 | 1013.3 |
| 20260906054537 | 82 | 0 | 0.0 | 2.6 | 0.00 | 0.00 | 0.00 | 84 | 1013.3 |
| 20260906053034 | 81 | 70 | 0.9 | 2.6 | 0.00 | 0.00 | 0.00 | 86 | 1013.2 |
| 20260906051552 | 81 | 0 | 0.0 | 0.0 | 0.00 | 0.00 | 0.00 | 85 | 1013.2 |
| 20260906050040 | 81 | 0 | 0.0 | 0.0 | 0.00 | 0.00 | 0.00 | 85 | 1013.1 |
| 20260906044623 | 81 | 0 | 0.0 | 0.0 | 0.00 | 0.00 | 0.00 | 84 | 1012.9 |
| 20260906044544 | 81 | 0 | 0.0 | 0.0 | 0.00 | 0.00 | 0.00 | 84 | 1012.9 |
| 20260906043044 | 81 | 19 | 0.0 | 0.9 | 0.00 | 0.00 | 0.00 | 83 | 1012.8 |
| 20260906041533 | 82 | 0 | 0.0 | 0.0 | 0.00 | 0.00 | 0.00 | 82 | 1012.7 |
| 20260906040038 | 82 | 19 | 0.0 | 0.9 | 0.00 | 0.00 | 0.00 | 81 | 1012.8 |
| 20260906034617 | 82 | 74 | 0.0 | 2.6 | 0.00 | 0.00 | 0.00 | 81 | 1012.7 |
| 20260906034540 | 82 | 74 | 0.0 | 2.6 | 0.00 | 0.00 | 0.00 | 81 | 1012.7 |
| 20260906033033 | 82 | 0 | 0.0 | 0.9 | 0.00 | 0.00 | 0.00 | 80 | 1012.4 |
| 20260906031542 | 82 | 0 | 0.0 | 0.0 | 0.00 | 0.00 | 0.00 | 81 | 1012.2 |
| 20260906030059 | 82 | 0 | 0.0 | 0.0 | 0.00 | 0.00 | 0.00 | 81 | 1012.2 |
| 20260906024535 | 82 | 0 | 0.0 | 0.0 | 0.00 | 0.00 | 0.00 | 78 | 1012.0 |
| 20260906023033 | 83 | 0 | 0.0 | 0.0 | 0.00 | 0.00 | 0.00 | 77 | 1011.9 |
| 20260906021538 | 85 | 0 | 0.0 | 0.0 | 0.00 | 0.00 | 0.00 | 75 | 1011.7 |
| 20260906020105 | 86 | 0 | 0.0 | 1.7 | 0.00 | 0.00 | 0.00 | 71 | 1011.4 |
| 20260906020033 | 86 | 0 | 0.0 | 1.7 | 0.00 | 0.00 | 0.00 | 71 | 1011.4 |
| 20260906014535 | 86 | 0 | 0.0 | 0.0 | 0.00 | 0.00 | 0.00 | 72 | 1011.2 |
| 20260906013054 | 86 | 0 | 0.0 | 0.9 | 0.00 | 0.00 | 0.00 | 71 | 1011.2 |
| 20260906011544 | 87 | 0 | 0.0 | 0.9 | 0.00 | 0.00 | 0.00 | 70 | 1011.0 |
| 20260906010036 | 88 | 0 | 0.0 | 0.0 | 0.00 | 0.00 | 0.00 | 67 | 1010.9 |
| 20260906004534 | 90 | 0 | 0.0 | 1.7 | 0.00 | 0.00 | 0.00 | 66 | 1010.8 |
| 20260906003036 | 91 | 62 | 0.9 | 3.5 | 0.00 | 0.00 | 0.00 | 63 | 1010.6 |
| 20260906001533 | 92 | 19 | 0.9 | 4.3 | 0.00 | 0.00 | 0.00 | 61 | 1010.8 |
| 20260906000112 | 95 | 59 | 1.7 | 3.5 | 0.00 | 0.00 | 0.00 | 56 | 1010.8 |
| 20260906000035 | 95 | 59 | 1.7 | 3.5 | 0.00 | 0.00 | 0.00 | 56 | 1010.8 |
| 20260905234538 | 97 | 0 | 0.0 | 1.7 | 0.00 | 0.00 | 0.00 | 53 | 1010.7 |
| 20260905233041 | 98 | 3 | 0.9 | 3.5 | 0.00 | 0.00 | 0.00 | 51 | 1010.8 |
| 20260905231534 | 98 | 30 | 0.9 | 2.6 | 0.00 | 0.00 | 0.00 | 50 | 1010.8 |
| 20260905230040 | 98 | 322 | 1.7 | 4.3 | 0.00 | 0.00 | 0.00 | 48 | 1010.9 |
| 20260905224535 | 99 | 80 | 0.9 | 2.6 | 0.00 | 0.00 | 0.00 | 49 | 1010.7 |
| 20260905223052 | 98 | 35 | 1.7 | 7.0 | 0.00 | 0.00 | 0.00 | 48 | 1010.7 |
| 20260905221535 | 99 | 49 | 1.7 | 7.8 | 0.00 | 0.00 | 0.00 | 47 | 1010.7 |
| 20260905220039 | 100 | 343 | 1.7 | 3.5 | 0.00 | 0.00 | 0.00 | 45 | 1010.7 |
| 20260905214532 | 101 | 308 | 1.7 | 5.2 | 0.00 | 0.00 | 0.00 | 44 | 1010.6 |
| 20260905213038 | 100 | 48 | 2.6 | 5.2 | 0.00 | 0.00 | 0.00 | 46 | 1010.6 |
| 20260905211535 | 101 | 331 | 0.9 | 3.5 | 0.00 | 0.00 | 0.00 | 44 | 1010.8 |
| 20260905210047 | 100 | 62 | 0.9 | 7.0 | 0.00 | 0.00 | 0.00 | 43 | 1010.8 |
| 20260905204536 | 101 | 26 | 1.7 | 7.0 | 0.00 | 0.00 | 0.00 | 44 | 1011.0 |
| 20260905203051 | 100 | 105 | 2.6 | 7.0 | 0.00 | 0.00 | 0.00 | 44 | 1010.9 |
| 20260905201535 | 100 | 307 | 3.5 | 8.7 | 0.00 | 0.00 | 0.00 | 43 | 1011.1 |
| 20260905200034 | 100 | 58 | 1.7 | 8.7 | 0.00 | 0.00 | 0.00 | 47 | 1011.3 |
| 20260905194539 | 100 | 292 | 2.6 | 7.8 | 0.00 | 0.00 | 0.00 | 45 | 1011.5 |
| 20260905193037 | 99 | 321 | 2.6 | 7.0 | 0.00 | 0.00 | 0.00 | 47 | 1011.8 |
| 20260905191542 | 100 | 19 | 2.6 | 7.8 | 0.00 | 0.00 | 0.00 | 47 | 1012.0 |
| 20260905190035 | 99 | 332 | 2.6 | 8.7 | 0.00 | 0.00 | 0.00 | 48 | 1012.0 |
| 20260905184543 | 100 | 263 | 1.7 | 8.7 | 0.00 | 0.00 | 0.00 | 47 | 1012.3 |
| 20260905183033 | 100 | 322 | 3.5 | 7.8 | 0.00 | 0.00 | 0.00 | 46 | 1012.3 |
| 20260905181535 | 99 | 235 | 2.6 | 5.2 | 0.00 | 0.00 | 0.00 | 49 | 1012.5 |
| 20260905180035 | 99 | 269 | 1.7 | 4.3 | 0.00 | 0.00 | 0.00 | 51 | 1012.5 |
| 20260905174536 | 98 | 35 | 1.7 | 5.2 | 0.00 | 0.00 | 0.00 | 53 | 1012.8 |
| 20260905173037 | 97 | 250 | 1.7 | 5.2 | 0.00 | 0.00 | 0.00 | 53 | 1013.1 |
| 20260905171538 | 97 | 340 | 2.6 | 7.8 | 0.00 | 0.00 | 0.00 | 54 | 1013.3 |
| 20260905170034 | 97 | 294 | 1.7 | 5.2 | 0.00 | 0.00 | 0.00 | 54 | 1013.3 |
| 20260905164543 | 95 | 21 | 2.6 | 5.2 | 0.00 | 0.00 | 0.00 | 57 | 1013.6 |
| 20260905163044 | 94 | 0 | 0.9 | 5.2 | 0.00 | 0.00 | 0.00 | 61 | 1013.7 |
| 20260905161541 | 94 | 60 | 0.9 | 5.2 | 0.00 | 0.00 | 0.00 | 61 | 1013.7 |
| 20260905160109 | 93 | 317 | 1.7 | 5.2 | 0.00 | 0.00 | 0.00 | 62 | 1013.9 |
| 20260905160036 | 93 | 317 | 1.7 | 5.2 | 0.00 | 0.00 | 0.00 | 62 | 1013.9 |
| 20260905154537 | 93 | 21 | 1.7 | 3.5 | 0.00 | 0.00 | 0.00 | 64 | 1013.9 |
| 20260905153037 | 90 | 255 | 1.7 | 3.5 | 0.00 | 0.00 | 0.00 | 66 | 1013.9 |
| 20260905151536 | 89 | 270 | 0.9 | 4.3 | 0.00 | 0.00 | 0.00 | 68 | 1014.0 |
| 20260905150042 | 90 | 324 | 2.6 | 5.2 | 0.00 | 0.00 | 0.00 | 65 | 1013.9 |
| 20260905144537 | 89 | 306 | 2.6 | 7.0 | 0.00 | 0.00 | 0.00 | 68 | 1013.8 |
| 20260905143035 | 88 | 306 | 2.6 | 7.0 | 0.00 | 0.00 | 0.00 | 69 | 1013.9 |
| 20260905141535 | 86 | 265 | 2.6 | 7.0 | 0.00 | 0.00 | 0.00 | 74 | 1013.8 |
| 20260905140037 | 85 | 322 | 0.9 | 4.3 | 0.00 | 0.00 | 0.00 | 78 | 1013.8 |
| 20260905134533 | 84 | 280 | 0.0 | 2.6 | 0.00 | 0.00 | 0.00 | 79 | 1013.8 |
| 20260905133035 | 85 | 0 | 0.0 | 0.0 | 0.00 | 0.00 | 0.00 | 79 | 1013.7 |